Vorticity
nan nan nan nan nan nan nan nan nan nan nan nan nan nan nan nan nan nan nan nan nan nan nan nan nan nan nan nan nan nan nan nan nan nan nan nan nan nan nan nan nan nan nan nan nan nan nan nan nan nan nan nan nan nan nan nan nan nan nan nan nan nan nan nan nan nan nan nan nan
nan 9 8 8 9 10 9 8 9 9 8 7 7 8 8 9 10 10 9 9 8 8 8 8 7 6 5 5 8 8 8 8 7 8 10 11 11 10 11 11 10 10 10 10 10 10 10 9 8 6 6 8 9 9 9 8 9 9 10 8 9 11 14 15 13 13 14 15 nan
nan 9 10 10 9 8 7 8 7 6 7 7 8 8 9 10 10 10 9 8 8 8 8 7 6 6 6 8 8 8 8 7 7 9 10 11 10 10 10 9 9 9 10 11 10 9 8 8 8 7 6 6 6 7 8 9 8 10 12 14 12 11 11 13 14 15 16 17 nan
nan 9 9 8 7 7 7 6 5 6 8 9 9 10 10 10 9 9 8 8 9 8 6 4 5 6 7 8 7 7 7 7 7 9 10 9 9 10 10 9 9 10 10 11 10 8 8 8 8 8 8 7 8 9 9 9 9 10 12 15 12 11 9 10 12 13 13 13 nan
nan 9 8 7 8 9 9 7 6 8 9 10 9 8 8 9 8 7 6 7 7 5 3 2 5 6 7 7 8 8 8 8 10 11 10 8 10 10 10 9 9 10 11 12 11 10 10 9 7 8 8 10 12 11 10 7 8 9 10 11 10 10 10 9 10 10 10 10 nan
nan 8 8 7 8 9 9 8 8 9 9 8 6 6 6 6 4 3 3 5 5 5 5 8 9 9 8 9 9 9 9 10 11 10 8 9 10 10 10 10 11 11 11 11 10 11 11 9 7 7 8 10 11 11 10 9 9 10 9 7 9 9 9 8 9 10 9 7 nan
nan 8 8 8 9 9 8 7 9 10 10 8 7 6 5 3 2 3 4 7 8 9 11 13 12 10 8 9 9 9 8 8 8 8 9 10 10 10 10 11 12 11 10 10 11 12 12 9 7 8 9 10 11 12 11 10 8 8 7 5 7 8 10 10 9 9 8 6 nan
nan 10 9 9 9 9 8 8 8 8 9 7 6 6 6 5 5 7 10 11 11 10 11 11 8 7 7 7 7 7 8 9 9 10 10 10 9 10 11 11 11 11 11 12 11 10 9 9 8 9 9 10 9 10 11 9 6 5 5 5 5 6 7 8 7 6 6 8 nan
nan 9 9 10 9 9 9 9 9 8 7 5 6 7 8 8 9 11 13 12 10 9 8 7 6 7 8 7 8 9 10 11 11 10 10 9 9 9 10 11 10 11 11 12 12 11 10 10 9 8 8 7 5 5 7 8 6 5 5 8 6 4 2 4 4 4 5 9 nan
nan 7 8 10 9 8 9 10 10 10 9 8 9 9 9 9 12 12 12 9 8 7 7 7 7 9 10 11 11 11 11 11 11 10 9 8 8 8 9 8 8 9 10 10 12 14 14 12 9 6 5 4 4 4 6 7 7 7 6 7 6 5 3 3 4 6 8 10 nan
nan 8 9 9 8 8 9 10 11 11 11 10 10 11 11 13 13 11 9 7 6 7 8 8 9 10 11 12 11 11 10 10 8 7 7 6 7 8 8 7 7 8 8 8 11 13 13 10 8 6 5 4 7 9 10 9 9 9 7 3 5 6 7 6 6 8 10 10 nan
nan 9 9 8 8 8 9 10 11 10 10 10 10 12 12 13 10 9 8 7 8 9 10 10 10 10 12 11 10 10 9 7 6 6 6 7 8 9 9 8 9 9 10 10 11 11 10 8 7 8 8 6 7 8 9 7 7 8 8 5 6 7 8 8 8 8 9 9 nan
nan 9 8 8 8 9 10 10 10 10 10 10 11 11 11 10 9 9 9 9 10 10 10 10 11 11 11 9 8 7 5 5 6 6 7 9 10 10 10 10 10 10 11 13 11 9 7 8 9 9 9 7 5 4 5 5 5 6 6 6 6 6 8 9 10 8 8 7 nan
nan 8 8 8 9 10 10 11 11 10 9 10 11 10 10 9 9 10 10 10 10 9 9 10 11 10 8 7 5 3 3 4 6 8 9 10 10 10 10 10 9 10 10 11 10 8 7 7 9 9 9 8 6 6 6 8 7 6 6 6 6 7 7 9 10 10 11 10 nan
nan 8 9 9 10 10 10 11 11 9 9 10 10 9 9 9 9 9 9 9 10 10 10 9 9 8 7 6 4 4 6 8 9 10 11 11 11 10 10 8 7 7 7 7 8 9 10 10 11 11 10 10 9 10 10 10 9 8 7 7 7 7 7 7 8 9 11 11 nan
nan 9 9 9 9 9 9 10 9 8 8 8 8 8 9 9 9 8 8 8 10 10 8 6 7 8 8 7 7 9 11 12 12 12 12 12 11 10 9 6 5 6 6 7 8 10 11 12 13 13 12 12 11 11 10 9 9 9 8 7 8 8 7 7 7 8 9 9 nan
nan 9 9 9 9 9 8 8 7 6 6 6 7 8 9 8 8 7 7 9 9 7 5 6 8 7 6 6 9 12 13 13 12 12 12 11 11 10 8 6 6 7 8 9 9 9 10 11 11 12 13 13 12 11 10 9 9 9 9 8 8 8 8 8 8 9 10 9 nan
nan 9 9 9 9 9 8 7 6 6 6 7 9 9 8 7 6 6 8 9 8 6 6 9 9 7 5 6 9 11 11 10 9 9 10 11 12 11 9 8 9 9 9 9 10 10 10 11 11 12 13 14 13 12 11 10 10 10 9 9 8 8 9 10 10 10 10 9 nan
nan 9 9 9 9 9 9 8 8 8 8 9 9 8 7 7 7 7 8 8 8 8 8 9 8 7 6 7 8 8 9 10 9 9 11 12 12 11 10 10 10 10 9 9 10 10 11 12 12 12 12 12 11 11 11 10 10 10 10 11 10 10 10 11 11 10 9 9 nan
nan 9 9 9 9 9 9 9 9 9 9 8 7 7 7 8 8 8 8 8 8 9 9 9 7 6 6 8 8 9 10 11 9 10 12 12 10 10 11 12 12 12 12 11 11 11 11 11 12 12 12 11 11 11 11 11 10 10 10 11 12 12 11 11 12 11 10 10 nan
nan 9 9 9 9 9 9 9 9 9 8 8 8 8 8 9 9 9 9 9 9 9 9 9 7 6 7 8 9 10 11 10 10 11 12 11 11 12 13 14 13 13 13 12 11 11 10 10 11 11 12 13 13 12 11 11 11 11 10 9 10 10 10 10 11 11 11 11 nan
nan 9 10 10 9 8 8 8 8 9 9 8 8 8 9 9 9 9 10 10 9 9 9 9 9 8 8 8 9 9 10 8 9 11 12 12 12 13 13 13 13 12 12 14 14 14 14 14 13 13 13 15 14 12 11 8 8 9 10 7 7 7 8 9 9 10 11 12 nan
nan 9 10 11 9 8 8 9 9 9 9 8 8 9 9 9 9 9 9 9 9 9 10 11 10 9 9 8 8 7 7 7 9 11 12 12 11 10 11 12 13 14 15 18 17 16 15 16 18 18 17 15 15 15 14 12 11 11 11 10 9 9 10 10 9 10 10 10 nan
nan 9 9 8 7 8 9 9 9 8 8 8 8 9 9 9 9 9 9 9 9 9 10 9 8 8 9 9 8 7 7 8 9 10 11 10 9 9 11 13 14 16 18 17 8 2 0 4 10 15 17 16 16 17 17 16 14 13 13 13 13 13 14 13 12 11 11 10 nan
nan 8 8 6 7 8 8 8 8 8 8 9 9 9 9 9 9 9 9 9 9 10 9 8 8 8 8 8 8 9 9 11 11 10 10 9 8 9 11 13 14 17 16 7 -3 -7 -7 -7 -5 -0 6 13 15 17 18 18 16 13 13 13 14 15 16 18 18 17 16 15 nan
nan 9 9 8 8 8 8 8 9 9 9 9 9 9 10 10 10 9 8 9 10 10 10 11 9 7 7 8 8 9 10 11 10 9 8 7 7 7 10 12 13 14 9 -2 -4 -1 2 0 -4 -5 -1 7 11 14 17 18 15 13 12 12 13 13 13 15 16 17 16 15 nan
nan 9 9 9 8 8 9 9 9 9 9 9 9 10 10 10 8 8 8 9 10 11 12 12 10 10 12 13 11 9 8 7 7 8 9 8 7 8 10 12 12 8 0 -7 -4 2 7 8 5 3 2 3 9 12 13 12 13 14 15 15 13 12 10 9 11 11 11 10 nan
nan 9 9 8 8 9 9 9 9 9 9 9 10 9 9 8 7 8 9 10 10 11 13 13 13 15 16 12 9 8 7 6 8 10 11 10 9 9 11 11 7 1 -7 -8 -0 5 8 8 9 8 7 4 12 15 16 14 15 16 17 17 16 15 13 12 12 12 10 8 nan
nan 9 9 9 9 9 9 10 9 9 10 10 10 9 8 9 9 9 10 10 10 11 11 11 12 11 7 4 5 7 9 11 11 11 9 8 9 10 10 8 5 1 -3 -1 5 8 10 10 10 10 9 9 12 14 16 16 16 16 15 16 15 14 14 12 9 9 10 14 nan
nan 10 9 9 9 9 10 10 9 9 10 10 9 9 9 9 10 10 11 11 12 11 9 7 5 3 2 3 7 10 11 12 10 9 7 7 8 9 8 8 6 4 2 4 8 10 10 11 12 12 12 13 13 13 13 12 12 13 14 14 13 12 10 10 10 11 12 15 nan
nan 10 9 9 10 10 10 9 9 9 10 8 8 9 10 9 10 11 12 13 12 10 8 7 6 6 7 9 10 9 9 8 7 7 8 10 10 10 9 8 7 5 3 5 9 11 12 12 12 12 12 15 18 16 12 9 10 11 11 9 8 7 7 10 12 10 6 2 nan
nan 10 10 10 10 10 10 9 9 9 9 8 9 9 10 11 12 12 12 11 10 10 10 11 10 11 11 11 10 9 8 7 6 6 7 10 11 10 9 9 11 9 5 5 9 11 12 12 12 12 11 13 17 15 12 11 13 13 12 9 7 7 6 6 7 6 4 3 nan
nan 10 10 10 10 10 10 9 10 9 9 9 10 10 11 13 12 11 10 10 11 12 12 12 12 12 12 12 11 10 9 8 7 8 9 10 10 9 9 13 16 11 4 4 7 10 11 12 12 11 10 14 20 20 18 15 15 14 12 10 9 9 9 6 6 8 10 10 nan
nan 11 11 10 10 10 9 9 9 9 9 9 9 10 11 12 11 10 10 10 10 11 12 13 13 13 13 12 10 8 7 6 8 10 12 12 11 10 10 12 10 2 -2 1 6 9 10 11 11 11 11 20 27 25 20 16 13 10 8 7 7 8 9 10 9 10 11 11 nan
nan 11 11 10 9 9 8 8 8 8 8 9 10 11 12 12 11 11 10 9 9 11 12 13 13 12 11 10 7 5 4 6 9 11 11 11 11 11 10 8 2 -4 -3 2 7 9 11 11 11 11 15 27 31 25 19 17 15 12 9 8 8 9 10 11 12 13 14 14 nan
nan 11 10 9 8 8 8 8 8 9 9 10 10 12 13 12 12 12 10 10 13 14 14 13 12 11 9 8 7 7 8 11 12 12 12 11 10 11 10 9 5 2 4 7 10 11 11 11 11 13 19 30 27 20 16 17 16 15 14 12 12 12 13 15 15 15 14 14 nan
nan 10 9 8 8 8 8 9 9 9 10 10 12 12 12 12 12 11 10 12 15 15 14 12 10 9 8 8 8 9 10 12 12 12 11 10 11 11 10 9 8 9 10 11 11 11 11 11 11 14 20 26 19 15 14 15 15 15 15 16 15 15 16 18 20 19 16 12 nan
nan 9 9 8 8 9 9 9 9 10 10 12 13 12 11 12 13 11 11 13 15 13 12 10 8 8 8 8 9 10 11 12 11 11 10 11 10 9 8 9 10 11 11 10 10 10 10 11 11 13 17 18 15 15 16 15 13 12 12 14 15 16 16 17 19 19 18 13 nan
nan 9 9 9 9 9 9 9 9 10 11 13 12 11 10 12 12 11 11 14 13 11 10 8 7 7 7 8 11 12 13 13 12 11 10 10 8 6 5 9 11 11 8 7 7 9 10 10 11 12 15 18 19 18 17 14 12 10 10 11 13 16 17 15 15 15 16 15 nan
nan 9 9 9 9 10 10 9 10 11 11 11 10 11 11 12 11 10 12 12 10 9 9 8 7 7 7 10 14 15 14 12 11 9 9 8 7 6 10 14 13 11 10 9 9 10 10 10 11 13 18 24 22 18 15 13 13 12 11 10 12 15 17 16 13 12 12 15 nan
nan nan nan nan nan nan nan nan nan nan nan nan nan nan nan nan nan nan nan nan nan nan nan nan nan nan nan nan nan nan nan nan nan nan nan nan nan nan nan nan nan nan nan nan nan nan nan nan nan nan nan nan nan nan nan nan nan nan nan nan nan nan nan nan nan nan nan nan nan
CAPE
nan nan nan nan nan nan nan nan nan nan nan nan nan nan nan nan nan nan nan nan nan nan nan nan nan nan nan nan nan nan nan nan nan nan nan nan nan nan nan nan nan nan nan nan nan nan nan nan nan nan nan nan nan 1 1 5 10 13 13 17 17 19 19 22 21 21 20 19 19
nan nan nan nan nan nan nan nan nan nan nan nan nan nan nan nan nan nan nan nan nan nan nan nan nan nan nan nan nan nan nan nan nan nan nan nan nan nan nan nan nan nan nan nan nan nan nan nan nan nan nan nan nan 1 1 4 7 12 12 15 16 17 17 18 20 20 21 20 21
nan nan nan nan nan nan nan nan nan nan nan nan nan nan nan nan nan nan nan nan nan nan nan nan nan nan nan nan nan nan nan nan nan nan nan nan nan nan nan nan nan nan nan nan nan nan nan nan nan nan nan nan nan 0 0 1 3 7 7 11 13 17 17 18 17 17 21 24 25
nan nan nan nan nan nan nan nan nan nan nan nan nan nan nan nan nan nan nan nan nan nan nan nan nan nan nan nan nan nan nan nan nan nan nan nan nan nan nan nan nan nan nan nan nan nan nan nan nan nan nan nan nan 0 0 1 2 5 5 8 12 14 14 18 18 18 21 24 27
nan nan nan nan nan nan nan nan nan nan nan nan nan nan nan nan nan nan nan nan nan nan nan nan nan nan nan nan nan nan nan nan nan nan nan nan nan nan nan nan nan nan nan nan nan nan nan nan nan nan nan nan nan 0 0 nan 3 5 5 8 11 14 14 17 18 18 24 27 28
nan nan nan nan nan nan nan nan nan nan nan nan nan nan nan nan nan nan nan nan nan nan nan nan nan nan nan nan nan nan nan nan nan nan nan nan nan nan nan nan nan nan nan nan nan nan nan nan nan nan nan nan nan nan nan 1 4 5 5 8 10 13 13 16 23 23 26 28 26
nan nan nan nan nan nan nan nan nan nan nan nan nan nan nan nan nan nan nan nan nan nan nan nan nan nan nan nan nan nan nan nan nan nan nan nan nan nan nan nan nan nan nan nan nan nan nan nan nan nan nan 0 0 nan nan 1 4 6 6 8 9 11 11 16 22 22 25 28 28
nan nan nan nan nan nan nan nan nan nan nan nan nan nan nan nan nan nan nan nan nan nan nan nan nan nan nan nan nan nan nan nan nan nan nan nan nan nan nan nan nan nan nan nan nan nan nan nan nan nan nan nan nan 0 0 1 3 6 6 7 8 10 10 15 20 20 26 28 27
nan nan nan nan nan nan nan nan nan nan nan nan nan nan nan nan nan nan nan nan nan nan nan nan nan nan nan nan nan nan nan nan nan nan nan nan nan nan nan nan nan nan nan nan nan nan nan nan nan nan nan nan nan nan nan 0 1 4 4 6 7 8 8 10 16 16 22 26 28
nan nan nan nan nan nan nan nan nan nan nan nan nan nan nan nan nan nan nan nan nan nan nan nan nan nan nan nan nan nan nan nan nan nan nan nan nan nan nan nan 0 0 0 nan nan nan nan nan nan nan nan nan nan 0 0 1 2 4 4 5 5 5 5 6 12 12 19 27 32
nan nan nan nan nan nan nan nan nan nan nan nan nan nan nan nan nan nan nan nan nan nan nan nan nan nan nan nan nan nan nan nan nan nan nan nan nan nan nan 0 1 0 0 nan nan nan nan nan nan nan nan nan nan 0 0 1 2 4 4 5 5 8 8 9 11 11 16 25 28
nan nan nan nan nan nan nan nan nan nan nan nan nan nan nan nan nan nan nan nan nan nan nan nan nan nan nan nan nan nan nan nan nan nan nan nan nan nan nan nan 0 0 0 0 0 0 0 0 0 0 nan nan nan nan nan nan 0 1 1 4 6 7 7 9 9 9 10 13 17
nan nan nan nan nan nan nan nan nan nan nan nan nan nan nan nan nan nan nan nan nan nan nan nan nan nan nan nan nan nan nan nan nan 1 1 nan nan nan nan nan 0 0 0 0 1 1 1 1 0 0 nan nan nan nan nan nan nan 0 0 1 3 3 3 5 5 5 6 10 14
nan nan nan nan nan nan nan nan nan nan nan nan nan nan nan nan nan nan nan nan nan nan nan nan nan nan nan nan nan nan nan nan 1 nan nan nan nan nan nan 0 nan 0 0 2 4 4 2 2 0 0 nan nan nan 0 0 nan nan nan nan nan 0 2 2 3 5 5 8 12 16
nan nan nan nan nan nan nan nan nan nan nan nan nan nan nan nan nan nan nan nan nan nan nan nan nan nan nan nan nan nan nan 0 1 0 0 0 nan 0 0 0 0 3 3 6 6 6 3 2 1 1 0 nan nan nan nan nan nan nan nan nan nan 1 1 3 6 6 8 11 12
nan nan nan nan nan nan nan nan nan nan nan nan nan nan nan nan nan nan nan nan nan nan nan nan nan nan nan nan nan nan nan 0 1 2 2 0 nan nan nan nan 2 5 5 8 7 7 5 1 0 0 nan nan nan nan nan nan 0 0 0 0 0 1 1 3 5 5 8 9 10
nan nan nan nan nan nan nan nan nan nan nan nan nan nan nan nan nan nan nan nan nan nan nan nan nan nan nan nan nan nan 0 1 1 2 2 2 2 0 0 1 5 7 7 9 10 10 7 5 2 2 1 0 nan nan nan 0 1 0 0 1 1 2 2 3 4 4 4 7 10
nan nan nan nan nan nan nan nan nan nan nan nan nan nan nan nan nan nan nan nan nan nan nan nan nan nan nan nan nan nan 1 2 1 2 2 2 4 8 8 10 9 9 9 9 12 12 13 8 5 5 5 4 3 2 2 2 1 1 1 1 0 1 1 1 2 2 3 3 6
nan nan nan nan nan nan nan nan nan nan nan nan nan nan nan nan nan nan nan nan nan nan nan nan nan nan nan nan nan nan 1 1 1 0 0 1 4 12 12 12 11 12 12 12 14 14 13 9 7 7 8 6 3 3 3 2 1 1 1 0 0 1 1 1 2 2 2 2 2
nan nan nan nan nan nan nan nan nan nan nan nan nan nan nan nan nan nan nan nan nan nan nan nan nan nan nan nan nan nan nan nan 0 0 0 1 7 14 14 11 13 15 15 15 15 15 13 12 10 10 7 7 5 2 2 1 0 0 0 1 1 1 1 1 2 2 2 2 2
nan nan nan nan nan nan nan nan nan nan nan nan nan nan nan nan nan nan nan nan nan nan nan nan nan nan nan nan nan nan nan nan nan 0 0 3 8 11 11 17 21 23 23 19 17 17 13 14 10 10 9 7 5 3 3 2 0 0 0 0 0 1 1 2 2 2 4 4 3
nan nan nan nan nan nan nan nan nan nan nan nan nan nan nan nan nan nan nan nan nan nan nan nan nan nan nan nan nan nan nan nan nan 1 1 4 6 12 12 24 29 29 29 27 23 23 19 15 12 12 8 5 3 1 1 1 0 0 0 0 nan 1 1 1 1 1 2 3 4
nan nan nan nan nan nan nan nan nan nan nan nan nan nan nan nan nan nan nan nan nan nan nan nan nan nan nan nan nan nan nan nan nan 0 0 3 9 17 17 26 35 37 37 34 30 30 26 18 11 11 6 3 0 nan nan nan 0 0 0 nan nan nan nan nan 0 0 0 0 1
nan nan nan nan nan nan nan nan nan nan nan nan nan nan nan nan nan nan nan nan nan nan nan nan nan nan nan nan nan nan nan nan nan nan nan 1 7 16 16 24 33 35 35 39 49 49 47 34 19 19 11 7 2 nan nan nan nan nan nan nan nan nan nan nan nan nan nan nan nan
nan nan nan nan nan nan nan nan nan nan nan nan nan nan nan nan nan nan nan nan nan nan nan nan nan nan nan nan nan nan nan nan 0 1 1 1 4 12 12 16 22 30 30 46 80 80 99 87 60 60 34 22 14 6 6 3 2 1 1 0 1 1 1 1 0 0 0 nan nan
nan nan nan nan nan nan nan nan nan nan nan nan nan nan nan nan nan nan nan nan nan nan nan nan nan nan nan nan nan nan nan nan 0 2 2 3 6 8 8 12 18 27 27 56 85 85 103 153 148 148 76 37 24 17 17 17 13 16 16 15 18 17 17 16 13 13 10 5 3
nan nan nan nan nan nan nan nan nan nan nan nan nan nan nan nan nan nan nan nan nan nan nan nan nan 0 0 nan nan nan nan nan nan 1 1 4 6 7 7 12 17 32 32 68 94 94 108 141 168 168 123 56 34 28 28 19 20 22 22 24 25 26 26 28 27 27 24 18 10
nan nan nan nan nan nan nan nan nan nan nan nan nan nan nan nan nan nan nan nan nan nan nan nan nan nan nan nan nan nan nan nan nan 1 1 4 6 8 8 12 16 36 36 77 93 93 104 121 153 153 146 94 35 25 25 20 21 20 20 24 24 25 25 26 24 24 20 10 3
nan nan nan nan nan nan nan nan nan nan nan nan nan nan nan nan nan nan nan nan nan nan nan nan nan nan nan nan nan nan nan nan 0 2 2 3 6 8 8 10 17 45 45 83 92 92 96 99 118 118 140 125 48 21 21 21 22 21 21 20 22 21 21 19 13 13 5 1 0
nan nan nan nan nan nan nan nan nan nan nan nan nan nan nan nan nan nan nan nan nan nan nan nan nan 0 0 nan nan nan nan nan 0 2 2 4 6 8 8 14 16 41 41 83 96 96 98 99 114 114 130 140 82 29 29 25 24 27 27 21 19 13 13 3 1 1 6 0 1
nan nan nan nan nan nan nan nan nan nan nan nan nan nan nan nan nan nan nan nan nan nan nan nan 0 nan nan nan 0 0 0 0 2 1 1 2 10 9 9 9 14 40 40 83 95 95 100 104 111 111 124 135 93 34 34 25 26 26 26 23 22 22 22 35 51 51 51 31 10
nan nan nan nan nan nan nan nan nan nan nan nan nan nan nan nan nan nan nan nan nan nan nan nan nan nan nan nan 0 0 0 1 1 2 2 5 6 6 6 10 13 36 36 85 94 94 99 101 107 107 120 131 92 36 36 27 26 24 24 23 19 23 23 23 30 30 21 16 11
nan nan nan nan nan nan nan nan nan nan nan nan nan nan nan nan nan nan nan nan nan nan nan nan nan 0 0 1 1 1 1 0 2 10 10 13 7 6 6 10 10 44 44 85 96 96 101 103 107 107 112 123 77 28 28 23 23 18 18 16 16 21 21 26 29 29 24 17 12
nan nan nan nan nan nan nan nan nan nan nan nan nan nan nan nan nan nan nan nan nan nan nan 0 1 2 2 3 3 3 2 4 3 3 3 4 4 6 6 9 8 59 59 86 95 95 98 101 101 101 104 111 57 26 26 22 18 16 16 13 11 15 15 20 19 19 18 12 8
nan nan nan nan nan nan nan nan nan nan nan nan nan nan nan nan nan nan nan nan 1 0 0 1 3 4 4 5 5 5 5 4 0 1 1 2 4 9 9 6 8 60 60 79 86 86 85 87 85 85 88 85 40 20 20 16 14 10 10 10 10 12 12 13 14 14 11 7 5
nan nan nan nan nan nan nan nan nan nan nan nan nan nan nan nan nan nan nan 0 3 2 2 2 5 6 6 7 5 5 8 4 1 1 1 4 4 4 4 4 3 46 46 69 68 68 67 63 67 67 78 60 28 17 17 9 5 6 6 8 10 7 7 8 10 10 7 4 1
nan nan nan nan nan nan nan nan nan nan nan nan nan nan nan nan nan nan nan 1 1 2 2 4 7 8 8 7 4 4 6 3 2 1 1 6 6 3 3 2 nan 19 19 49 53 53 52 53 58 58 67 44 20 12 12 6 3 4 4 6 10 7 7 8 7 7 5 1 nan
nan nan nan nan nan nan nan nan nan nan nan nan nan nan nan nan nan 0 0 7 5 5 5 6 9 7 7 3 4 4 4 3 3 2 2 3 4 1 1 1 nan 5 5 33 44 44 47 51 62 62 61 34 22 11 11 6 3 5 5 8 10 10 10 10 7 7 2 nan 0
nan nan nan nan nan nan nan nan nan nan nan nan nan nan nan nan nan 1 1 9 8 10 10 12 7 2 2 4 5 5 5 2 6 4 4 nan 0 4 4 0 nan 1 1 24 40 40 46 52 62 62 65 42 20 8 8 3 2 4 4 10 11 10 10 7 3 3 0 nan 3
nan nan nan nan nan nan nan nan nan nan nan nan nan nan nan nan 0 6 6 11 9 11 11 9 6 8 8 22 16 16 7 nan nan 2 2 0 1 16 16 5 nan 1 1 22 36 36 42 52 60 60 62 42 13 4 4 1 1 4 4 6 8 7 7 4 nan nan nan nan 8
nan nan nan nan nan nan nan nan nan nan nan nan nan nan nan 0 6 6 6 6 7 8 8 9 7 9 9 25 16 16 6 nan nan nan nan 1 5 24 24 6 nan nan nan 9 28 28 39 50 61 61 70 34 12 2 2 0 0 1 1 4 6 3 3 nan nan nan nan nan 1